Regional Weather Roundup
Issued by NWS

Home | Current Version | Previous Version | Text Only | Print | Product List | Glossary Off
Versions: 1 2 3 4 5 6 7 8 9 10 11 12 13 14 15 16 17 18 19 20 21 22 23 24 25 26 27 28 29 30 31 32 33 34 35 36 37 38 39 40 41 42 43 44 45 46 47 48 49 50

000
ASUS43 KIND 112159
RWRIN

WEATHER ROUNDUP FOR INDIANA
NATIONAL WEATHER SERVICE INDIANAPOLIS IN
500 PM EST THU FEB 11 2016

NOTE: "FAIR" INDICATES FEW OR NO CLOUDS BELOW 12,000 FEET WITH NO
SIGNIFICANT WEATHER AND/OR OBSTRUCTIONS TO VISIBILITY.

* - STATION DOES NOT REPORT WEATHER SUCH AS PRECIPITATION OR FOG.

+ - STATION NOT QUALITY CONTROLLED BY THE NATIONAL WEATHER SERVICE.
    USE DATA WITH CAUTION...ESPECIALLY DEWPOINT AND RELATIVE
    HUMIDITY OBSERVATIONS.

INZ001>003-010>013-019-020-112300-
NORTHWEST INDIANA

CITY           SKY/WX    TMP DP  RH WIND       PRES   REMARKS
GARY /AIRPORT/ SUNNY     23   5  46 CALM      30.30S
MONTICELLO +   SUNNY     22  -2  34 CALM      30.28F
RENSSELAER +   SUNNY     25  -2  30 W8        30.29S WCI  16

$$

LMZ046-743>745-112300-
SOUTHERN LAKE MICHIGAN

STATION/POSITION TIME  TEMP    WIND        PRES    WAVE
                       AIR SEA DIR/SP/G            HT
                 (UTC) (F)     (DEG/KT/KT) (MB)    (FT)
BURNS HARBOR     2100   18     350/  4/  8 1026.4S
MICHIGAN CITY    2100   19     280/  8/  9   N/A

$$

INZ004-005-014>016-021>024-112300-
NORTH CENTRAL INDIANA

CITY           SKY/WX    TMP DP  RH WIND       PRES   REMARKS
ELKHART        CLOUDY    19   7  58 MISG      30.27R
GOSHEN         MOSUNNY   17   7  64 W10       30.25S WCI   5
SOUTH BEND     PTSUNNY   19  10  68 W10       30.27S WCI   7

$$

INZ006>009-017-018-025>027-112300-
NORTHEAST INDIANA

CITY           SKY/WX    TMP DP  RH WIND       PRES   REMARKS
ANGOLA *+      CLOUDY    19   9  63 NW5       30.22S WCI  13
FORT WAYNE     CLOUDY    22  10  60 W12       30.27R WCI  10

$$

INZ028-029-035-036-043>045-051>053-112300-
WEST CENTRAL INDIANA

CITY           SKY/WX    TMP DP  RH WIND       PRES   REMARKS
GREENCASTLE +  SUNNY     25   1  36 CALM      30.29S
LAFAYETTE      SUNNY     23   1  38 NW7       30.30S WCI  15
TERRE HAUTE    SUNNY     25   5  42 E6        30.31R WCI  18

$$

INZ030>032-037>040-046>048-054>057-064-065-112300-
CENTRAL INDIANA

CITY           SKY/WX    TMP DP  RH WIND       PRES   REMARKS
FRANKFORT +    SUNNY     26  -6  24 NW6       30.29S WCI  19
INDIANAPOLIS   MOSUNNY   26   7  44 W8        30.27S WCI  18
-EAGLE CREEK   SUNNY     25   7  46 N6        30.28R WCI  18
KOKOMO *+      MOSUNNY   21   7  53 W7        30.28R WCI  13
MT COMFORT *+  SUNNY     25   7  46 N7        30.28S WCI  17
SHELBYVILLE    SUNNY     23   8  52 SW5       30.28R WCI  17

$$

INZ033-034-041-042-049-050-058-059-112300-
EAST CENTRAL INDIANA

CITY           SKY/WX    TMP DP  RH WIND       PRES   REMARKS
MUNCIE         MOSUNNY   20   7  57 NW7       30.28R WCI  11

$$

INZ060-061-067>069-081>083-085>088-112300-
SOUTHWEST INDIANA

CITY           SKY/WX    TMP DP  RH WIND       PRES   REMARKS
EVANSVILLE     SUNNY     32  11  41 N5        30.31R WCI  27
HUNTINGBURG *+ SUNNY     28   9  43 N7        30.30R WCI  21

$$

INZ062-063-066-070>080-084-089>092-112300-
SOUTH CENTRAL AND SOUTHEAST INDIANA

CITY           SKY/WX    TMP DP  RH WIND       PRES   REMARKS
BLOOMINGTON    SUNNY     27   6  41 N3        30.28R
MADISON *+     SUNNY     27   7  43 NW5       30.30R WCI  21

$$




USA.gov is the U.S. government's official web portal to all federal, state and local government web resources and services.